Location: Ferchesar
(52.6477°N, 12.4298°E)
Time: 03:49:04
(UTC+02:00)

Vanguard 3 - Pass Details

Date: 07 March 2021
Orbit: 508 x 3262 km, 33.3° (Epoch: 15 April)

Event Time Altitude Azimuth Distance (km) Brightness Sun altitude
Rises 17:34:58 0° 259° (W) 7,194 15.6 3.0°
Reaches altitude 10° 17:40:45 10° 251° (WSW) 6,018 13.9 2.1°
Maximum altitude 17:55:18 32° 199° (SSW) 3,645 10.8 -0.1°
Drops below altitude 10° 18:05:28 10° 142° (SE) 4,181 10.5 -1.6°
Sets 18:08:39 0° 132° (SE) 4,811 10.7 -2.1°
